Weather History for Tallahassee, FL

Change the Weather History Date:

Tuesday, January 1, 2013

  Actual Average Record
Temperature  
Mean Temperature 58 °F 51 °F  
Max Temperature 73 °F 63 °F 79 °F (1952)
Min Temperature 43 °F 39 °F 19 °F (1984)
Degree Days  
Heating Degree Days 7    
Month to date heating degree days 7  
Since 1 July heating degree days 532  
Cooling Degree Days 0    
Month to date cooling degree days 0  
Year to date cooling degree days 0  
Growing Degree Days 8 (Base 50)    
Moisture  
Dew Point 54 °F    
Average Humidity 77    
Maximum Humidity 93    
Minimum Humidity 61    
Precipitation  
Precipitation 0.00 in 0.12 in 2.50 in (1913)
Month to date precipitation 0.00 0.12  
Year to date precipitation 0.00 0.12  
Sea Level Pressure  
Sea Level Pressure 30.08 in    
Wind  
Wind Speed 5 mph (SSE)    
Max Wind Speed 15 mph    
Max Gust Speed 20 mph    
Visibility 9 miles    
Events      
T = Trace of Precipitation, MM = Missing Value Source: NWS Daily Summary

Daily Weather History Graph

Daily Weather History Graph

Search for Another Location

Airport:

Trip Planner

Search our weather history database for the weather conditions in past years. The results will help you decide how hot, cold, wet, or windy it might be!

Date:

Astronomy

Jan. 01, 2013 Rise Set
Actual Time 7:34 AM EST 5:48 PM EST
Civil Twilight 7:07 AM EST 6:14 PM EST
Nautical Twilight 6:38 AM EST 6:44 PM EST
Astronomical Twilight 6:08 AM EST 7:13 PM EST
Moon 9:58 PM EST (1/1) 10:03 AM EST (1/1)
Length of Visible Light 11h 06m
Length of Day
10h 13m
Waning Gibbous, 83% of the Moon is Illuminated
Jan 1
Waning Gibbous
Jan 4
Last Quarter
Jan 11
New
Jan 18
First Quarter
Jan 26
Full

Hourly Weather History & Observations

Time (EST) Temp. Dew Point Humidity Pressure Visibility Wind Dir Wind Speed Gust Speed Precip Events Conditions
12:53 AM 45.0 °F 41.0 °F 86% 30.18 in 7.0 mi Calm Calm - N/A   Clear
1:53 AM 44.1 °F 39.9 °F 85% 30.16 in 9.0 mi Calm Calm - N/A   Clear
2:53 AM 44.1 °F 41.0 °F 89% 30.16 in 9.0 mi Calm Calm - N/A   Mostly Cloudy
3:53 AM 48.0 °F 45.0 °F 89% 30.15 in 6.0 mi SE 3.5 mph - N/A   Overcast
4:53 AM 48.0 °F 45.0 °F 89% 30.13 in 7.0 mi Calm Calm - N/A   Overcast
5:53 AM 48.9 °F 46.0 °F 90% 30.12 in 9.0 mi Calm Calm - N/A   Overcast
6:53 AM 51.1 °F 48.0 °F 89% 30.12 in 10.0 mi Calm Calm - N/A   Overcast
7:53 AM 52.0 °F 48.9 °F 89% 30.11 in 10.0 mi Calm Calm - N/A   Overcast
8:53 AM 55.0 °F 51.1 °F 86% 30.12 in 10.0 mi Calm Calm - N/A   Overcast
9:53 AM 61.0 °F 54.0 °F 78% 30.12 in 10.0 mi SSE 4.6 mph - N/A   Mostly Cloudy
10:53 AM 64.9 °F 55.0 °F 70% 30.13 in 10.0 mi South 9.2 mph - N/A   Overcast
11:53 AM 69.1 °F 55.9 °F 63% 30.11 in 10.0 mi SSW 13.8 mph 19.6 mph N/A   Partly Cloudy
12:48 PM 71.6 °F 57.2 °F 60% 30.08 in 10.0 mi South 8.1 mph - N/A   Mostly Cloudy
12:53 PM 71.1 °F 57.9 °F 63% 30.08 in 10.0 mi South 8.1 mph - N/A   Mostly Cloudy
1:31 PM 73.4 °F 57.2 °F 57% 30.05 in 10.0 mi SSE 11.5 mph - N/A   Overcast
1:53 PM 72.0 °F 59.0 °F 64% 30.05 in 10.0 mi South 8.1 mph - N/A   Mostly Cloudy
2:53 PM 73.0 °F 59.0 °F 61% 30.04 in 10.0 mi South 12.7 mph - N/A   Overcast
3:53 PM 72.0 °F 60.1 °F 66% 30.02 in 10.0 mi SSE 12.7 mph - N/A   Mostly Cloudy
4:53 PM 69.1 °F 60.1 °F 73% 30.01 in 10.0 mi SSE 12.7 mph - N/A   Scattered Clouds
5:53 PM 66.0 °F 59.0 °F 78% 30.01 in 10.0 mi SSE 6.9 mph - N/A   Scattered Clouds
6:53 PM 64.9 °F 59.0 °F 81% 30.02 in 10.0 mi South 5.8 mph - N/A   Scattered Clouds
7:53 PM 64.0 °F 59.0 °F 84% 30.01 in 10.0 mi SSE 3.5 mph - N/A   Overcast
8:53 PM 63.0 °F 59.0 °F 87% 30.01 in 10.0 mi SSE 3.5 mph - N/A   Mostly Cloudy
9:53 PM 63.0 °F 59.0 °F 87% 30.02 in 9.0 mi South 3.5 mph - N/A   Partly Cloudy
10:53 PM 63.0 °F 60.1 °F 90% 30.01 in 7.0 mi South 3.5 mph - N/A   Scattered Clouds
11:13 PM 62.6 °F 60.8 °F 94% 30.01 in 3.0 mi SSE 4.6 mph - N/A   Mostly Cloudy
11:53 PM 64.0 °F 62.1 °F 93% 30.00 in 6.0 mi South 5.8 mph - N/A   Overcast